Weather History for Patuxent River, MD

Change the Weather History Date:

Saturday, March 30, 2013

  Actual Average Record
Temperature  
Mean Temperature 45 °F -  
Max Temperature 57 °F 63 °F 88 °F (1998)
Min Temperature 35 °F 46 °F 32 °F (2007)
Degree Days  
Heating Degree Days 20    
Moisture  
Dew Point 30 °F    
Average Humidity 56    
Maximum Humidity 79    
Minimum Humidity 34    
Precipitation  
Precipitation 0.00 in - - ()
Sea Level Pressure  
Sea Level Pressure 30.18 in    
Wind  
Wind Speed 3 mph (SSE)    
Max Wind Speed 10 mph    
Max Gust Speed -    
Visibility 10 miles    
Events      
Averages and records for this station are not official NWS values.
T = Trace of Precipitation, MM = Missing Value Source: NWS Daily Summary

Daily Weather History Graph

Daily Weather History Graph

Search for Another Location

Airport:

Trip Planner

Search our weather history database for the weather conditions in past years. The results will help you decide how hot, cold, wet, or windy it might be!

Date:

Astronomy

Mar. 30, 2013 Rise Set
Actual Time 6:53 AM EDT 7:27 PM EDT
Civil Twilight 6:26 AM EDT 7:53 PM EDT
Nautical Twilight 5:55 AM EDT 8:25 PM EDT
Astronomical Twilight 5:23 AM EDT 8:57 PM EDT
Moon 11:27 PM EDT (3/30) 8:49 AM EDT (3/30)
Length of Visible Light 13h 27m
Length of Day
12h 33m
Waning Gibbous, 86% of the Moon is Illuminated
Mar 30
Waning Gibbous
Apr 3
Last Quarter
Apr 10
New
Apr 18
First Quarter
Apr 25
Full

Hourly Weather History & Observations

Time (EDT) Temp. Windchill Dew Point Humidity Pressure Visibility Wind Dir Wind Speed Gust Speed Precip Events Conditions
12:52 AM 36.0 °F - 28.0 °F 73% 30.20 in 10.0 mi Calm Calm - N/A   Scattered Clouds
1:52 AM 37.0 °F - 28.9 °F 73% 30.20 in 10.0 mi Calm Calm - N/A   Overcast
2:52 AM 35.1 °F 32.2 °F 28.9 °F 78% 30.19 in 10.0 mi SW 3.5 mph - N/A   Overcast
3:52 AM 36.0 °F 31.1 °F 30.0 °F 79% 30.19 in 10.0 mi SSW 5.8 mph - N/A   Overcast
4:52 AM 37.9 °F 35.5 °F 30.9 °F 76% 30.18 in 10.0 mi West 3.5 mph - N/A   Overcast
5:52 AM 39.0 °F - 28.9 °F 67% 30.19 in 10.0 mi Calm Calm - N/A   Overcast
6:11 AM 35.6 °F 32.8 °F 28.4 °F 75% 30.19 in 10.0 mi West 3.5 mph - N/A   Mostly Cloudy
6:52 AM 36.0 °F 33.3 °F 30.0 °F 79% 30.20 in 10.0 mi WNW 3.5 mph - N/A   Mostly Cloudy
7:52 AM 39.0 °F - 33.1 °F 79% 30.22 in 10.0 mi Calm Calm - N/A   Mostly Cloudy
8:52 AM 45.0 °F - 35.1 °F 68% 30.22 in 10.0 mi Calm Calm - N/A   Mostly Cloudy
9:52 AM 50.0 °F - 33.1 °F 52% 30.22 in 10.0 mi Calm Calm - N/A   Scattered Clouds
10:52 AM 53.1 °F - 30.0 °F 41% 30.22 in 10.0 mi Calm Calm - N/A   Scattered Clouds
11:52 AM 53.1 °F - 32.0 °F 45% 30.21 in 10.0 mi Variable 5.8 mph - N/A   Scattered Clouds
12:52 PM 53.1 °F - 28.9 °F 40% 30.19 in 10.0 mi ESE 8.1 mph - N/A   Mostly Cloudy
1:52 PM 53.1 °F - 32.0 °F 45% 30.17 in 10.0 mi East 4.6 mph - N/A   Scattered Clouds
2:52 PM 55.0 °F - 30.0 °F 38% 30.14 in 10.0 mi East 10.4 mph - N/A   Scattered Clouds
3:52 PM 55.9 °F - 28.0 °F 34% 30.14 in 10.0 mi East 9.2 mph - N/A   Partly Cloudy
4:52 PM 55.0 °F - 32.0 °F 42% 30.13 in 10.0 mi ESE 9.2 mph - N/A   Partly Cloudy
5:52 PM 53.1 °F - 28.9 °F 40% 30.13 in 10.0 mi SE 9.2 mph - N/A   Partly Cloudy
6:52 PM 52.0 °F - 30.0 °F 43% 30.13 in 10.0 mi SE 8.1 mph - N/A   Clear
7:52 PM 50.0 °F - 28.9 °F 44% 30.14 in 10.0 mi SSE 5.8 mph - N/A   Clear
8:52 PM 48.0 °F - 27.0 °F 44% 30.15 in 10.0 mi SSE 5.8 mph - N/A   Clear
9:52 PM 46.9 °F - 26.1 °F 44% 30.16 in 10.0 mi SE 4.6 mph - N/A   Clear
10:52 PM 44.1 °F - 28.9 °F 55% 30.16 in 10.0 mi Calm Calm - N/A   Clear
11:52 PM 46.9 °F - 28.0 °F 48% 30.15 in 10.0 mi SE 3.5 mph - N/A   Clear